METAR Formatted Surface Weather Observation
Issued by NWS

Home | Current Version | Previous Version | Text Only | Print | Product List | Glossary On
Versions: 1 2 3 4 5 6 7 8 9 10 11 12 13 14 15 16 17 18 19 20 21 22 23 24 25 26 27 28 29 30 31 32 33 34
000
SAUS45 KSLC 291537
MTRU16
METAR KU16 291458Z AUTO 05005KT 10SM CLR 19/04 A3015 RMK
 AO2 SLP827 T01940039 50005 $



USA.gov is the U.S. government's official web portal to all federal, state and local government web resources and services.